Date String (YYYY-MM-DD hh:mm:ss) UTC,Instrument flags,Ambient pressure (hPa),Sample flow (lpm),Bypass flow (lpm),Sample temperature (°C),Ambient temperature (°C),ASC tube jacket temperature (°C),LED temperature (°C),Box temperature (°C),Sample RH (%),Span deviation,Mass concentration (μg/m³),Mass concentration (μg/m³),Mass concentration (μg/m³)
DateTimeUTC,F1_M11,P_M11,Q1_M11,Q2_M11,T1_M11,T2_M11,T3_M11,T4_M11,T5_M11,U1_M11,ZSPAN_M11,X0_M11,X2_M11,X1_M11
2022-01-16 07:00:00,,0826.0,5.00,0.00,22.7,22.0,00.0,31.7,24.5,06.3,0000.0,0001.96,0001.41,0001.23
2022-01-16 07:01:00,,0826.0,5.00,0.00,22.7,22.1,00.0,31.7,24.5,06.3,0000.0,0002.34,0001.70,0001.47
2022-01-16 07:02:00,,0826.0,4.99,0.00,22.7,22.1,00.0,31.7,24.5,06.2,0000.0,0002.69,0001.97,0001.70
2022-01-16 07:03:00,,0826.0,5.00,0.00,22.7,22.1,00.0,31.7,24.5,06.2,0000.0,0002.95,0002.20,0001.93
2022-01-16 07:04:00,,0826.1,5.01,0.00,22.7,22.1,00.0,31.7,24.5,05.5,0000.0,0003.16,0002.38,0002.10
2022-01-16 07:05:00,,0826.1,4.98,0.00,22.7,22.1,00.0,31.7,24.5,05.9,0000.0,0003.39,0002.57,0002.28
2022-01-16 07:06:00,,0826.1,5.02,0.00,22.7,22.1,00.0,31.7,24.5,06.7,0000.0,0003.81,0002.88,0002.55
2022-01-16 07:07:00,,0826.1,5.00,0.00,22.7,22.1,00.0,31.7,24.6,09.2,0000.0,0004.96,0003.38,0003.13
2022-01-16 07:08:00,,0826.1,4.99,0.00,22.7,22.1,00.0,31.7,24.6,09.2,0000.0,0006.47,0003.81,0003.56
2022-01-16 07:09:00,,0826.1,5.01,0.00,22.7,22.1,00.0,31.7,24.6,09.3,0000.0,0007.93,0004.17,0003.87
2022-01-16 07:10:00,,0826.0,5.00,0.00,22.8,22.2,00.0,31.7,24.6,09.8,0000.0,0008.47,0004.52,0004.20
2022-01-16 07:11:00,,0826.0,5.00,0.00,22.8,22.2,00.0,31.7,24.6,09.7,0000.0,0009.27,0004.86,0004.53
2022-01-16 07:12:00,,0826.0,4.99,0.00,22.8,22.2,00.0,31.7,24.6,09.5,0000.0,0009.86,0005.16,0004.83
2022-01-16 07:13:00,,0826.1,5.01,0.00,22.8,22.2,00.0,31.7,24.6,09.3,0000.0,0010.38,0005.45,0005.12
2022-01-16 07:14:00,,0826.2,4.99,0.00,22.8,22.2,00.0,31.7,24.6,09.7,0000.0,0010.84,0005.73,0005.37
2022-01-16 07:15:00,,0826.1,4.99,0.00,22.8,22.2,00.0,31.8,24.6,09.7,0000.0,0011.58,0006.13,0005.72
2022-01-16 07:16:00,,0826.1,5.00,0.00,22.8,22.2,00.0,31.8,24.7,09.7,0000.0,0012.49,0006.51,0006.07
2022-01-16 07:17:00,,0826.1,5.00,0.00,22.8,22.2,00.0,31.8,24.7,09.8,0000.0,0013.19,0006.85,0006.38
2022-01-16 07:18:00,,0826.1,5.00,0.00,22.8,22.2,00.0,31.8,24.7,09.6,0000.0,0013.82,0006.95,0006.48
2022-01-16 07:19:00,,0826.2,4.99,0.00,22.9,22.2,00.0,31.8,24.7,09.5,0000.0,0013.63,0006.90,0006.45
2022-01-16 07:20:00,,0826.3,5.01,0.00,22.9,22.2,00.0,31.8,24.7,09.4,0000.1,0013.25,0006.88,0006.45
2022-01-16 07:21:00,,0826.2,5.00,0.00,22.9,22.2,00.0,31.8,24.7,09.4,0000.5,0012.88,0006.81,0006.41
2022-01-16 07:22:00,,0826.3,5.00,0.00,22.9,22.2,00.0,31.8,24.7,08.7,0000.0,0012.83,0006.71,0006.33
2022-01-16 07:23:00,,0826.2,5.01,0.00,22.9,22.2,00.0,31.8,24.7,07.7,0000.0,0012.55,0006.56,0006.19
2022-01-16 07:24:00,,0826.1,5.00,0.00,22.8,22.2,00.0,31.8,24.7,07.8,0000.0,0012.23,0006.40,0006.03
2022-01-16 07:25:00,,0826.1,5.00,0.00,22.8,22.2,00.0,31.8,24.6,07.9,0000.0,0012.12,0006.31,0005.94
2022-01-16 07:26:00,,0825.9,5.01,0.00,22.8,22.2,00.0,31.8,24.6,07.1,0000.0,0011.70,0006.08,0005.72
2022-01-16 07:27:00,,0825.7,5.00,0.00,22.8,22.2,00.0,31.8,24.7,05.9,0000.0,0010.82,0005.72,0005.40
2022-01-16 07:28:00,,0825.6,5.01,0.00,22.8,22.2,00.0,31.8,24.6,06.7,0000.0,0010.12,0005.39,0005.11
2022-01-16 07:29:00,,0825.5,4.98,0.00,22.8,22.2,00.0,31.8,24.6,06.9,0000.0,0009.38,0005.15,0004.90
2022-01-16 07:30:00,,0825.5,5.00,0.00,22.8,22.1,00.0,31.8,24.6,06.8,0000.0,0009.02,0004.92,0004.67
2022-01-16 07:31:00,,0825.4,5.00,0.00,22.8,22.1,00.0,31.8,24.6,06.4,0000.0,0008.51,0004.67,0004.45
2022-01-16 07:32:00,,0825.5,5.00,0.00,22.8,22.2,00.0,31.8,24.6,06.4,0000.0,0008.24,0004.44,0004.19
2022-01-16 07:33:00,,0825.5,5.00,0.00,22.8,22.2,00.0,31.8,24.6,06.7,0000.0,0007.61,0004.21,0003.98
2022-01-16 07:34:00,,0825.5,5.00,0.00,22.8,22.2,00.0,31.8,24.6,07.3,0000.0,0007.15,0004.12,0003.88
2022-01-16 07:35:00,,0825.5,5.00,0.00,22.8,22.2,00.0,31.8,24.7,07.5,0000.0,0007.11,0004.09,0003.84
2022-01-16 07:36:00,,0825.5,5.00,0.00,22.8,22.2,00.0,31.8,24.7,08.2,0000.0,0007.44,0004.04,0003.79
2022-01-16 07:37:00,,0825.5,4.99,0.00,22.8,22.2,00.0,31.8,24.7,07.2,0000.0,0007.68,0004.01,0003.77
2022-01-16 07:38:00,,0825.4,5.02,0.00,22.8,22.2,00.0,31.8,24.6,07.3,0000.0,0007.74,0004.07,0003.84
2022-01-16 07:39:00,,0825.4,5.00,0.00,22.9,22.2,00.0,31.8,24.6,08.0,0000.0,0007.90,0004.21,0003.97
2022-01-16 07:40:00,,0825.3,5.00,0.00,22.9,22.2,00.0,31.8,24.6,08.2,0000.0,0007.93,0004.34,0004.08
2022-01-16 07:41:00,,0825.2,4.98,0.00,22.8,22.2,00.0,31.8,24.6,08.3,0000.0,0008.07,0004.49,0004.20
2022-01-16 07:42:00,,0825.2,5.02,0.00,22.8,22.1,00.0,31.8,24.6,07.7,0000.0,0008.27,0004.61,0004.30
2022-01-16 07:43:00,,0825.1,4.99,0.00,22.8,22.1,00.0,31.8,24.6,06.7,0000.0,0008.39,0004.68,0004.39
2022-01-16 07:44:00,,0825.0,5.00,0.00,22.8,22.1,00.0,31.8,24.6,06.2,0000.0,0008.43,0004.69,0004.41
2022-01-16 07:45:00,,0825.0,5.00,0.00,22.8,22.1,00.0,31.8,24.6,06.0,0000.0,0008.45,0004.69,0004.39
2022-01-16 07:46:00,,0824.9,5.00,0.00,22.8,22.1,00.0,31.8,24.6,05.9,0000.0,0008.39,0004.63,0004.34
2022-01-16 07:47:00,,0824.9,4.99,0.00,22.8,22.1,00.0,31.8,24.6,05.8,0000.0,0007.97,0004.51,0004.23
2022-01-16 07:48:00,,0824.9,5.01,0.00,22.8,22.1,00.0,31.8,24.6,06.0,0000.0,0007.38,0004.41,0004.14
2022-01-16 07:49:00,,0824.9,4.99,0.00,22.8,22.1,00.0,31.8,24.6,05.7,0000.0,0007.40,0004.34,0004.07
2022-01-16 07:50:00,,0824.9,5.01,0.00,22.8,22.1,00.0,31.8,24.5,05.9,0000.0,0007.43,0004.23,0003.96
2022-01-16 07:51:00,,0825.1,5.01,0.00,22.8,22.1,00.0,31.8,24.5,05.6,0000.0,0007.20,0004.04,0003.79
2022-01-16 07:52:00,,0825.2,4.99,0.00,22.8,22.1,00.0,31.8,24.6,05.8,0000.0,0006.58,0003.83,0003.62
2022-01-16 07:53:00,,0825.2,5.00,0.00,22.8,22.1,00.0,31.8,24.6,05.7,0000.0,0006.16,0003.67,0003.46
2022-01-16 07:54:00,,0825.3,5.00,0.00,22.8,22.1,00.0,31.8,24.6,05.7,0000.0,0005.86,0003.58,0003.36
2022-01-16 07:55:00,,0825.2,5.00,0.00,22.8,22.1,00.0,31.8,24.5,05.8,0000.0,0005.79,0003.55,0003.33
2022-01-16 07:56:00,,0825.2,5.01,0.00,22.8,22.1,00.0,31.8,24.6,05.7,0000.0,0006.00,0003.49,0003.29
2022-01-16 07:57:00,,0825.3,4.99,0.00,22.8,22.1,00.0,31.8,24.6,05.7,0000.0,0006.73,0003.51,0003.28
2022-01-16 07:58:00,,0825.4,5.02,0.00,22.8,22.1,00.0,31.8,24.6,05.7,0000.0,0006.77,0003.50,0003.27
2022-01-16 07:59:00,,0825.4,4.99,0.00,22.8,22.1,00.0,31.8,24.6,06.1,0000.0,0006.75,0003.52,0003.27
